FW2178 Weather Reports


Display with metric or nautical units.
time (UTC)temp
F
wind
direction
speed
MPH
gust
MPH
rain 1hr
in
rain 24hr
in
rain mn
in
humidity
%
barometer
mb
20260503021631 63 147 0.0 0.0 0.00 0.00 0.00 73 1011.3
20260503021417 63 146 0.0 0.0 0.00 0.00 0.00 72 1011.4
20260503020630 64 147 0.0 0.0 0.00 0.00 0.00 73 1011.4
20260503020134 64 147 0.0 1.0 0.00 0.00 0.00 72 1011.4
20260503015629 64 145 0.0 1.0 0.00 0.00 0.00 71 1011.6
20260503015417 64 163 1.0 1.0 0.00 0.00 0.00 71 1011.5
20260503014631 65 153 0.0 1.0 0.00 0.00 0.00 73 1011.5
20260503014130 65 152 0.0 0.0 0.00 0.00 0.00 69 1011.6
20260503013629 66 154 0.0 1.0 0.00 0.00 0.00 73 1011.6
20260503013132 66 153 0.0 3.0 0.00 0.00 0.00 67 1011.7
20260503012629 67 154 0.0 3.0 0.00 0.00 0.00 68 1011.9
20260503012419 67 133 0.0 4.0 0.00 0.00 0.00 64 1011.9
20260503011632 67 124 0.0 4.0 0.00 0.00 0.00 63 1011.7
20260503011130 67 169 0.0 3.0 0.00 0.00 0.00 62 1012.0
20260503010927 67 155 0.0 1.0 0.00 0.00 0.00 67 1011.9
20260503010132 67 155 0.0 1.0 0.00 0.00 0.00 65 1011.9
20260503005628 68 148 0.0 1.0 0.00 0.00 0.00 69 1011.8
20260503005418 69 136 0.0 1.0 0.00 0.00 0.00 65 1012.0
20260503004909 69 122 0.0 0.0 0.00 0.00 0.00 60 1011.7
20260503004422 69 134 0.0 0.0 0.00 0.00 0.00 60 1011.7
20260503003629 68 83 0.0 1.0 0.00 0.00 0.00 64 1011.9
20260503003128 68 154 0.0 1.0 0.00 0.00 0.00 67 1012.0
20260503002632 68 140 0.0 1.0 0.00 0.00 0.00 64 1012.0
20260503002129 69 135 0.0 1.0 0.00 0.00 0.00 65 1011.8
20260503001634 68 134 0.0 0.0 0.00 0.00 0.00 62 1011.7
20260503001132 69 147 0.0 0.0 0.00 0.00 0.00 67 1012.0
20260503000910 69 99 0.0 0.0 0.00 0.00 0.00 65 1011.7
20260503000129 69 126 0.0 0.0 0.00 0.00 0.00 62 1011.9
20260502235632 69 131 0.0 0.0 0.00 0.00 0.00 65 1011.9
20260502235129 69 132 0.0 0.0 0.00 0.00 0.00 61 1012.2
20260502234629 69 123 0.0 0.0 0.00 0.00 0.00 60 1011.8
20260502234426 70 129 0.0 0.0 0.00 0.00 0.00 60 1012.3
20260502233629 69 155 0.0 0.0 0.00 0.00 0.00 59 1012.2
20260502233129 70 117 0.0 0.0 0.00 0.00 0.00 62 1012.2
20260502232631 69 68 0.0 0.0 0.00 0.00 0.00 61 1012.3
20260502232130 69 135 0.0 0.0 0.00 0.00 0.00 57 1012.3
20260502231629 68 125 0.0 0.0 0.00 0.00 0.00 59 1012.5
20260502231425 69 115 0.0 0.0 0.00 0.00 0.00 68 1012.5
20260502230628 69 131 0.0 0.0 0.00 0.00 0.00 66 1012.6
20260502230129 69 123 0.0 0.0 0.00 0.00 0.00 62 1012.7
20260502225629 69 68 0.0 0.0 0.00 0.00 0.00 63 1013.0
20260502225130 69 134 0.0 0.0 0.00 0.00 0.00 63 1013.0
20260502224630 70 119 0.0 0.0 0.00 0.00 0.00 60 1013.1
20260502224129 69 162 0.0 0.0 0.00 0.00 0.00 61 1012.9
20260502223629 69 35 0.0 0.0 0.00 0.00 0.00 62 1013.2
20260502223421 69 141 0.0 0.0 0.00 0.00 0.00 63 1012.9
20260502222629 69 138 0.0 0.0 0.00 0.00 0.00 59 1013.1
20260502222129 69 139 0.0 0.0 0.00 0.00 0.00 57 1013.3
20260502221629 69 95 0.0 0.0 0.00 0.00 0.00 60 1013.3
20260502221424 69 125 0.0 0.0 0.00 0.00 0.00 57 1013.4
20260502220629 69 136 0.0 0.0 0.00 0.00 0.00 56 1013.3
20260502220129 69 112 0.0 0.0 0.00 0.00 0.00 57 1013.3
20260502215919 69 141 0.0 0.0 0.00 0.00 0.00 54 1013.4
20260502215129 69 112 0.0 0.0 0.00 0.00 0.00 55 1013.4
20260502214629 69 115 0.0 0.0 0.00 0.00 0.00 55 1013.4
20260502214232 69 134 0.0 0.0 0.00 0.00 0.00 59 1013.6
20260502214201 69 49 0.0 0.0 0.00 0.00 0.00 56 1013.4
20260502213130 69 115 0.0 0.0 0.00 0.00 0.00 54 1013.8
20260502212630 69 129 0.0 0.0 0.00 0.00 0.00 56 1013.7
20260502212440 68 142 0.0 0.0 0.00 0.00 0.00 58 1013.8
20260502211632 68 161 0.0 0.0 0.00 0.00 0.00 63 1013.9
20260502211130 67 98 0.0 0.0 0.00 0.00 0.00 64 1013.9
20260502210630 67 127 0.0 0.0 0.00 0.00 0.00 65 1013.9
20260502210129 67 127 0.0 0.0 0.00 0.00 0.00 61 1014.1
20260502205629 67 106 0.0 0.0 0.00 0.00 0.00 62 1013.7
20260502205131 67 139 0.0 0.0 0.00 0.00 0.00 64 1014.0
20260502204631 67 90 0.0 1.0 0.00 0.00 0.00 67 1013.9
20260502204134 66 89 0.0 2.0 0.00 0.00 0.00 69 1013.9
20260502203633 66 150 0.0 2.0 0.00 0.00 0.00 67 1014.2
20260502203135 66 84 0.0 2.0 0.00 0.00 0.00 69 1014.2
20260502202630 66 167 0.0 2.0 0.00 0.00 0.00 69 1014.2
20260502202129 66 137 0.0 2.0 0.00 0.00 0.00 69 1014.2
20260502201632 66 143 1.0 3.0 0.00 0.00 0.00 69 1014.2
20260502201129 66 141 0.0 3.0 0.00 0.00 0.00 71 1014.4
20260502200629 65 122 1.0 3.0 0.00 0.00 0.00 71 1014.4
20260502200132 65 144 0.0 4.0 0.00 0.00 0.00 73 1014.4
20260502195630 65 142 1.0 4.0 0.00 0.00 0.00 71 1014.8
20260502195130 64 118 1.0 4.0 0.00 0.00 0.00 73 1014.7
20260502194629 64 148 0.0 4.0 0.00 0.00 0.00 72 1014.8
20260502194415 64 149 1.0 4.0 0.00 0.00 0.00 73 1014.6
20260502193629 64 90 1.0 3.0 0.00 0.00 0.00 73 1014.6
20260502193132 64 87 2.0 2.0 0.00 0.00 0.00 72 1014.8
20260502192629 64 155 0.0 2.0 0.00 0.00 0.00 73 1015.0
20260502192129 64 97 1.0 2.0 0.00 0.00 0.00 74 1014.8
20260502191629 64 160 1.0 2.0 0.00 0.00 0.00 73 1014.9
20260502191129 63 130 0.0 0.0 0.00 0.00 0.00 75 1014.9
20260502190629 64 135 0.0 0.0 0.00 0.00 0.00 73 1014.8
20260502190131 64 149 0.0 0.0 0.00 0.00 0.00 74 1014.8
20260502185629 64 145 0.0 0.0 0.00 0.00 0.00 72 1014.9
20260502185137 64 143 0.0 0.0 0.00 0.00 0.00 74 1014.8
20260502184632 63 156 0.0 0.0 0.00 0.00 0.00 75 1014.8
20260502184420 63 153 0.0 0.0 0.00 0.00 0.00 75 1015.0
20260502183630 63 132 0.0 0.0 0.00 0.00 0.00 75 1014.8
20260502183129 62 127 0.0 0.0 0.00 0.00 0.00 77 1014.9
20260502182630 62 117 0.0 0.0 0.00 0.00 0.00 76 1014.9
20260502182133 62 146 0.0 0.0 0.00 0.00 0.00 78 1015.0
20260502181633 61 139 0.0 0.0 0.00 0.00 0.00 78 1015.1
20260502181414 61 144 0.0 0.0 0.00 0.00 0.00 77 1015.2
20260502180629 61 116 0.0 1.0 0.00 0.00 0.00 78 1015.2
20260502180500 61 143 0.0 2.0 0.00 0.00 0.00 78 1015.4
20260502180449 61 151 0.0 1.0 0.00 0.00 0.00 77 1015.2
20260502170129 58 142 0.0 2.0 0.00 0.00 0.00 83 1015.6
20260502164129 57 153 0.0 1.0 0.00 0.00 0.00 84 1015.4
20260502163633 56 107 1.0 1.0 0.00 0.00 0.00 85 1015.6
20260502163129 56 124 1.0 2.0 0.00 0.00 0.00 85 1015.7
20260502162923 56 135 0.0 2.0 0.00 0.00 0.00 88 1015.4
20260502162133 56 99 1.0 2.0 0.00 0.00 0.00 87 1015.2
20260502161630 55 138 1.0 2.0 0.00 0.00 0.00 86 1015.1
20260502161423 55 159 0.0 2.0 0.00 0.00 0.00 88 1015.3
20260502160632 55 158 0.0 1.0 0.00 0.00 0.00 87 1015.6
20260502160423 55 142 0.0 2.0 0.00 0.00 0.00 87 1015.3
20260502152134 53 112 0.0 0.0 0.00 0.00 0.00 92 1015.1
20260502151944 53 112 0.0 0.0 0.00 0.00 0.00 92 1015.1
20260502151131 53 112 0.0 0.0 0.00 0.00 0.00 93 1015.2
20260502150634 53 111 0.0 0.0 0.00 0.00 0.00 93 1015.1
20260502150132 52 115 0.0 0.0 0.00 0.00 0.00 92 1015.2
20260502140130 49 119 0.0 0.0 0.00 0.00 0.00 96 1015.3
20260502130414 49 120 0.0 0.0 0.00 0.00 0.00 96 1015.0
20260502123633 49 119 0.0 0.0 0.00 0.00 0.00 95 1015.3
20260502123128 49 119 0.0 0.0 0.00 0.00 0.00 95 1015.6
20260502122916 49 119 0.0 0.0 0.00 0.00 0.00 95 1015.3
20260502122129 49 119 0.0 0.0 0.00 0.00 0.00 95 1015.0
20260502121922 49 125 0.0 0.0 0.00 0.00 0.00 95 1015.6
20260502121130 49 126 0.0 0.0 0.00 0.00 0.00 95 1015.9
20260502120630 49 126 0.0 0.0 0.00 0.00 0.00 95 1015.6
20260502120130 49 128 0.0 0.0 0.00 0.00 0.00 94 1015.8
20260502115917 49 128 0.0 0.0 0.00 0.00 0.00 94 1015.6
20260502115129 49 128 0.0 0.0 0.00 0.00 0.00 94 1016.0
20260502114630 50 128 0.0 0.0 0.00 0.00 0.00 93 1015.8
20260502114129 50 128 0.0 0.0 0.00 0.00 0.00 93 1015.8
20260502113919 50 128 0.0 0.0 0.00 0.00 0.00 93 1015.8
20260502113131 50 128 0.0 0.0 0.00 0.00 0.00 93 1015.8
20260502112629 50 128 0.0 0.0 0.00 0.00 0.00 93 1015.8
20260502112129 50 128 0.0 0.0 0.00 0.00 0.00 93 1015.4
20260502111629 49 128 0.0 0.0 0.00 0.00 0.00 94 1015.7
20260502111130 49 128 0.0 0.0 0.00 0.00 0.00 94 1015.2
20260502110935 49 128 0.0 0.0 0.00 0.00 0.00 94 1015.4
20260502110130 49 128 0.0 0.0 0.00 0.00 0.00 94 1015.2
20260502105629 49 128 0.0 0.0 0.00 0.00 0.00 94 1015.3
20260502105430 49 128 0.0 0.0 0.00 0.00 0.00 94 1014.9
20260502104629 49 128 0.0 0.0 0.00 0.00 0.00 93 1015.1
20260502104129 49 128 0.0 0.0 0.00 0.00 0.00 93 1015.0
20260502103629 49 128 0.0 0.0 0.00 0.00 0.00 93 1015.0
20260502103417 49 128 0.0 0.0 0.00 0.00 0.00 93 1014.9
20260502102629 50 128 0.0 0.0 0.00 0.00 0.00 92 1015.3
20260502102128 50 127 0.0 0.0 0.00 0.00 0.00 91 1015.0
20260502101629 51 128 0.0 0.0 0.00 0.00 0.00 90 1014.9
20260502101129 51 128 0.0 0.0 0.00 0.00 0.00 90 1014.9
20260502100629 51 128 0.0 0.0 0.00 0.00 0.00 89 1015.0
20260502100129 51 128 0.0 0.0 0.00 0.00 0.00 90 1015.3
20260502091130 51 128 0.0 0.0 0.00 0.00 0.00 90 1015.2
20260502090719 51 128 0.0 0.0 0.00 0.00 0.00 89 1015.2
20260502090657 51 128 0.0 0.0 0.00 0.00 0.00 90 1015.2
20260502071128 53 137 0.0 0.0 0.00 0.00 0.00 79 1015.1
20260502070912 53 137 0.0 0.0 0.00 0.00 0.00 79 1015.0
20260502070129 53 137 0.0 0.0 0.00 0.00 0.00 77 1015.1
20260502065630 53 138 0.0 0.0 0.00 0.00 0.00 78 1014.9
20260502065414 53 138 0.0 0.0 0.00 0.00 0.00 77 1015.1
20260502064629 53 138 0.0 0.0 0.00 0.00 0.00 77 1014.9
20260502064129 53 137 0.0 0.0 0.00 0.00 0.00 80 1015.1
20260502063630 53 137 0.0 0.0 0.00 0.00 0.00 78 1014.7
20260502063412 54 137 0.0 0.0 0.00 0.00 0.00 78 1014.5
20260502062631 53 137 0.0 0.0 0.00 0.00 0.00 76 1014.9
20260502062129 54 138 0.0 0.0 0.00 0.00 0.00 79 1014.8
20260502061918 54 138 0.0 0.0 0.00 0.00 0.00 78 1014.6
20260502061436 54 137 0.0 0.0 0.00 0.00 0.00 76 1014.8
20260502060628 54 137 0.0 0.0 0.00 0.00 0.00 76 1015.0
20260502060129 54 136 0.0 0.0 0.00 0.00 0.00 76 1014.6
20260502055629 53 138 0.0 0.0 0.00 0.00 0.00 76 1014.7
20260502055128 53 138 0.0 0.0 0.00 0.00 0.00 76 1014.9
20260502054629 54 138 0.0 0.0 0.00 0.00 0.00 76 1014.6
20260502054129 53 138 0.0 0.0 0.00 0.00 0.00 75 1014.8
20260502053629 54 112 0.0 0.0 0.00 0.00 0.00 76 1014.7
20260502053130 54 112 0.0 0.0 0.00 0.00 0.00 75 1014.7
20260502052631 54 112 0.0 0.0 0.00 0.00 0.00 74 1014.6
20260502052129 54 112 0.0 0.0 0.00 0.00 0.00 76 1014.7
20260502051630 54 112 0.0 0.0 0.00 0.00 0.00 77 1014.6
20260502051130 54 112 0.0 0.0 0.00 0.00 0.00 75 1014.5
20260502050629 54 112 0.0 0.0 0.00 0.00 0.00 75 1014.6
20260502050140 55 112 0.0 0.0 0.00 0.00 0.00 76 1014.7
20260502045916 55 112 0.0 0.0 0.00 0.00 0.00 75 1014.3
20260502045130 55 111 0.0 0.0 0.00 0.00 0.00 75 1014.3
20260502044630 55 111 0.0 0.0 0.00 0.00 0.00 73 1014.1
20260502044129 56 112 0.0 0.0 0.00 0.00 0.00 74 1014.4
20260502043917 56 116 0.0 0.0 0.00 0.00 0.00 75 1014.7
20260502043419 56 116 0.0 0.0 0.00 0.00 0.00 74 1014.3
20260502042629 56 116 0.0 0.0 0.00 0.00 0.00 72 1014.1
20260502042129 57 112 0.0 0.0 0.00 0.00 0.00 72 1014.3
20260502041918 57 121 0.0 0.0 0.00 0.00 0.00 72 1014.3
20260502041130 57 118 0.0 0.0 0.00 0.00 0.00 74 1014.1
20260502040631 58 119 0.0 0.0 0.00 0.00 0.00 74 1014.0
20260502040133 58 120 0.0 0.0 0.00 0.00 0.00 73 1014.0
20260502035629 58 128 0.0 0.0 0.00 0.00 0.00 74 1014.1
20260502035129 58 136 0.0 0.0 0.00 0.00 0.00 71 1013.8
20260502034923 58 138 0.0 0.0 0.00 0.00 0.00 73 1014.0
20260502034129 59 136 0.0 0.0 0.00 0.00 0.00 76 1014.1
20260502033633 59 148 0.0 0.0 0.00 0.00 0.00 71 1014.0
20260502033133 60 148 0.0 0.0 0.00 0.00 0.00 70 1013.7
20260502032630 59 127 0.0 0.0 0.00 0.00 0.00 69 1013.8
20260502032129 60 126 0.0 0.0 0.00 0.00 0.00 77 1013.5
20260502031629 60 124 0.0 0.0 0.00 0.00 0.00 70 1013.4
20260502031130 61 124 0.0 0.0 0.00 0.00 0.00 71 1013.4
20260502030629 61 124 0.0 0.0 0.00 0.00 0.00 70 1013.6
20260502030133 61 124 0.0 0.0 0.00 0.00 0.00 71 1013.6
20260502025628 62 124 0.0 0.0 0.00 0.00 0.00 69 1013.4
20260502025128 61 113 0.0 0.0 0.00 0.00 0.00 73 1013.5
20260502024631 62 144 0.0 0.0 0.00 0.00 0.00 78 1013.4
20260502024415 62 126 0.0 0.0 0.00 0.00 0.00 77 1013.2
20260502023629 62 127 0.0 0.0 0.00 0.00 0.00 73 1013.2
20260502023132 62 127 0.0 0.0 0.00 0.00 0.00 74 1013.1
20260502022629 63 121 0.0 0.0 0.00 0.00 0.00 72 1013.2
20260502022129 63 122 0.0 0.0 0.00 0.00 0.00 72 1013.2